Time,TemperatureF,DewpointF,PressureIn,WindDirection,WindDirectionDegrees,WindSpeedMPH,WindSpeedGustMPH,Humidity,HourlyPrecipIn,Conditions,Clouds,dailyrainin,SoftwareType,DateUTC
2013-01-20 00:01:00,33.8,30.9,29.44,WSW,237,3.0,4.0,89,0.02,,OVC003,0.09,VWS V14.01,2013-01-20 05:01:00,
2013-01-20 00:02:00,33.8,30.9,29.44,WSW,237,2.0,4.0,89,0.02,,OVC003,0.09,VWS V14.01,2013-01-20 05:02:00,
2013-01-20 00:04:00,33.8,32.5,29.43,SW,230,4.0,4.0,95,0.02,,OVC003,0.00,VWS V14.01,2013-01-20 05:04:00,
2013-01-20 00:06:00,33.7,30.8,29.43,SW,231,4.0,4.0,89,0.02,,OVC003,0.00,VWS V14.01,2013-01-20 05:06:00,
2013-01-20 00:11:00,33.7,30.8,29.43,WSW,247,2.0,5.0,89,0.02,,OVC003,0.00,VWS V14.01,2013-01-20 05:11:00,
2013-01-20 00:16:00,33.8,30.9,29.43,WSW,240,6.0,6.0,89,0.02,,OVC003,0.00,VWS V14.01,2013-01-20 05:16:00,
2013-01-20 00:21:00,33.9,31.0,29.43,SW,218,5.0,13.0,89,0.02,,OVC003,0.00,VWS V14.01,2013-01-20 05:21:00,
2013-01-20 00:26:00,34.2,31.0,29.43,West,274,7.0,14.0,88,0.02,,OVC003,0.00,VWS V14.01,2013-01-20 05:26:00,
2013-01-20 00:31:00,34.4,30.9,29.43,West,270,10.0,15.0,87,0.02,,OVC003,0.00,VWS V14.01,2013-01-20 05:31:00,
2013-01-20 00:37:00,34.4,30.4,29.43,SW,216,10.0,13.0,85,0.03,,OVC003,0.01,VWS V14.01,2013-01-20 05:37:00,
2013-01-20 00:42:00,34.4,30.1,29.43,WSW,251,6.0,15.0,84,0.02,,OVC003,0.01,VWS V14.01,2013-01-20 05:42:00,
2013-01-20 00:47:00,34.4,29.8,29.43,NW,307,5.0,11.0,83,0.02,,OVC003,0.01,VWS V14.01,2013-01-20 05:47:00,
2013-01-20 00:52:00,34.4,29.5,29.44,WSW,240,4.0,11.0,82,0.01,,OVC003,0.01,VWS V14.01,2013-01-20 05:52:00,
2013-01-20 00:57:00,34.4,29.2,29.44,WNW,284,6.0,12.0,81,0.01,,OVC003,0.01,VWS V14.01,2013-01-20 05:57:00,
2013-01-20 01:02:00,34.7,28.2,29.44,NW,308,4.0,17.0,77,0.01,,OVC003,0.01,VWS V14.01,2013-01-20 06:02:00,
2013-01-20 01:07:00,34.7,28.5,29.46,WSW,240,7.0,10.0,78,0.01,,OVC003,0.01,VWS V14.01,2013-01-20 06:07:00,
2013-01-20 01:12:00,34.2,28.4,29.46,ENE,74,9.0,13.0,79,0.01,,OVC003,0.01,VWS V14.01,2013-01-20 06:12:00,
2013-01-20 01:17:00,33.5,28.3,29.46,WNW,288,5.0,9.0,81,0.01,,OVC003,0.01,VWS V14.01,2013-01-20 06:17:00,
2013-01-20 01:22:00,33.0,27.8,29.48,WNW,283,7.0,10.0,81,0.01,,OVC003,0.01,VWS V14.01,2013-01-20 06:22:00,
2013-01-20 01:27:00,32.5,26.7,29.48,West,270,7.0,14.0,79,0.01,,OVC003,0.01,VWS V14.01,2013-01-20 06:27:00,
2013-01-20 01:32:00,32.2,25.8,29.50,SW,220,11.0,12.0,77,0.01,,OVC003,0.01,VWS V14.01,2013-01-20 06:32:00,
2013-01-20 01:38:00,31.9,24.9,29.50,NW,312,3.0,17.0,75,0.00,,OVC003,0.01,VWS V14.01,2013-01-20 06:38:00,
2013-01-20 01:43:00,31.6,24.3,29.50,NW,306,3.0,11.0,74,0.00,,OVC003,0.01,VWS V14.01,2013-01-20 06:43:00,
2013-01-20 01:48:00,31.2,22.9,29.51,SW,234,13.0,13.0,71,0.00,,OVC003,0.01,VWS V14.01,2013-01-20 06:48:00,
2013-01-20 01:53:00,30.7,22.1,29.51,SSW,195,4.0,12.0,70,0.00,,OVC003,0.01,VWS V14.01,2013-01-20 06:53:00,
2013-01-20 01:58:00,30.2,20.9,29.51,South,180,10.0,17.0,68,0.00,,OVC003,0.01,VWS V14.01,2013-01-20 06:58:00,
2013-01-20 02:03:00,29.7,19.8,29.53,SSW,206,6.0,20.0,66,0.00,,OVC003,0.01,VWS V14.01,2013-01-20 07:03:00,
2013-01-20 02:08:00,29.5,20.3,29.53,West,262,8.0,21.0,68,0.00,,OVC003,0.01,VWS V14.01,2013-01-20 07:08:00,
2013-01-20 02:13:00,29.1,20.5,29.53,WSW,243,9.0,14.0,70,0.00,,OVC003,0.01,VWS V14.01,2013-01-20 07:13:00,
2013-01-20 02:18:00,28.6,21.1,29.55,SW,225,17.0,17.0,73,0.00,,OVC003,0.01,VWS V14.01,2013-01-20 07:18:00,
2013-01-20 02:23:00,28.0,21.4,29.55,WSW,244,3.0,20.0,76,0.00,,OVC003,0.01,VWS V14.01,2013-01-20 07:23:00,
2013-01-20 02:28:00,27.7,21.4,29.55,WNW,302,6.0,13.0,77,0.00,,OVC003,0.01,VWS V14.01,2013-01-20 07:28:00,
2013-01-20 02:33:00,27.5,21.2,29.58,NW,317,11.0,13.0,77,0.00,,OVC003,0.01,VWS V14.01,2013-01-20 07:33:00,
2013-01-20 02:38:00,27.4,20.2,29.58,WSW,245,5.0,13.0,74,0.00,,OVC003,0.01,VWS V14.01,2013-01-20 07:38:00,
2013-01-20 02:43:00,27.3,19.8,29.58,North,357,6.0,15.0,73,0.00,,OVC003,0.01,VWS V14.01,2013-01-20 07:43:00,
2013-01-20 02:48:00,27.2,19.4,29.60,NW,322,3.0,15.0,72,0.00,,OVC003,0.01,VWS V14.01,2013-01-20 07:48:00,
2013-01-20 02:53:00,27.1,19.0,29.60,SSE,163,5.0,14.0,71,0.00,,OVC003,0.01,VWS V14.01,2013-01-20 07:53:00,
2013-01-20 02:58:00,26.9,18.8,29.60,SW,221,6.0,15.0,71,0.00,,OVC003,0.01,VWS V14.01,2013-01-20 07:58:00,
2013-01-20 03:03:00,26.6,18.8,29.63,NNE,17,11.0,17.0,72,0.00,,OVC003,0.01,VWS V14.01,2013-01-20 08:03:00,
2013-01-20 03:08:00,26.3,18.5,29.63,NW,322,4.0,17.0,72,0.00,,OVC003,0.01,VWS V14.01,2013-01-20 08:08:00,
2013-01-20 03:13:00,26.1,18.3,29.63,NW,312,4.0,17.0,72,0.00,,OVC003,0.01,VWS V14.01,2013-01-20 08:13:00,
2013-01-20 03:18:00,25.7,17.3,29.65,NW,317,7.0,17.0,70,0.00,,OVC003,0.01,VWS V14.01,2013-01-20 08:18:00,
2013-01-20 03:23:00,25.5,17.1,29.65,WNW,282,4.0,16.0,70,0.00,,OVC003,0.01,VWS V14.01,2013-01-20 08:23:00,
2013-01-20 03:28:00,25.3,16.9,29.65,NW,305,7.0,14.0,70,0.00,,OVC003,0.01,VWS V14.01,2013-01-20 08:28:00,
2013-01-20 03:33:00,25.1,17.0,29.67,West,266,4.0,11.0,71,0.00,,OVC003,0.01,VWS V14.01,2013-01-20 08:33:00,
2013-01-20 03:38:00,24.9,17.2,29.67,WNW,299,14.0,14.0,72,0.00,,OVC003,0.01,VWS V14.01,2013-01-20 08:38:00,
2013-01-20 03:43:00,24.2,16.8,29.67,West,277,9.0,9.0,73,0.00,,OVC003,0.01,VWS V14.01,2013-01-20 08:43:00,
2013-01-20 03:48:00,23.8,16.4,29.69,SSE,157,6.0,6.0,73,0.00,,OVC003,0.01,VWS V14.01,2013-01-20 08:48:00,
2013-01-20 03:53:00,23.6,15.6,29.69,WNW,300,7.0,7.0,71,0.00,,OVC003,0.01,VWS V14.01,2013-01-20 08:53:00,
2013-01-20 03:58:00,23.5,15.5,29.69,West,262,4.0,4.0,71,0.00,,OVC003,0.01,VWS V14.01,2013-01-20 08:58:00,
2013-01-20 04:03:00,23.4,15.4,29.71,West,280,16.0,16.0,71,0.00,,OVC003,0.01,VWS V14.01,2013-01-20 09:03:00,
2013-01-20 04:08:00,23.2,15.5,29.71,SSW,199,3.0,3.0,72,0.00,,OVC003,0.01,VWS V14.01,2013-01-20 09:08:00,
2013-01-20 04:13:00,22.9,15.2,29.71,NW,322,8.0,9.0,72,0.00,,OVC003,0.01,VWS V14.01,2013-01-20 09:13:00,
2013-01-20 04:18:00,22.4,14.8,29.73,SW,234,7.0,7.0,72,0.00,,OVC003,0.01,VWS V14.01,2013-01-20 09:18:00,
2013-01-20 04:23:00,22.0,15.0,29.73,NW,312,5.0,5.0,74,0.00,,OVC003,0.01,VWS V14.01,2013-01-20 09:23:00,
2013-01-20 04:28:00,21.8,14.5,29.73,WNW,286,6.0,6.0,73,0.00,,OVC003,0.01,VWS V14.01,2013-01-20 09:28:00,
2013-01-20 04:34:00,21.6,13.7,29.74,NNW,330,9.0,9.0,71,0.00,,OVC003,0.01,VWS V14.01,2013-01-20 09:34:00,
2013-01-20 04:39:00,21.5,13.2,29.74,NW,312,4.0,4.0,70,0.00,,OVC003,0.01,VWS V14.01,2013-01-20 09:39:00,
2013-01-20 04:44:00,21.3,12.7,29.74,WSW,252,11.0,12.0,69,0.00,,OVC003,0.01,VWS V14.01,2013-01-20 09:44:00,
2013-01-20 04:49:00,21.2,12.6,29.75,WNW,287,3.0,5.0,69,0.00,,OVC003,0.01,VWS V14.01,2013-01-20 09:49:00,
2013-01-20 04:54:00,21.1,12.5,29.75,North,8,9.0,9.0,69,0.00,,OVC003,0.01,VWS V14.01,2013-01-20 09:54:00,
2013-01-20 04:59:00,20.8,11.9,29.75,NE,47,4.0,12.0,68,0.00,,OVC003,0.01,VWS V14.01,2013-01-20 09:59:00,
2013-01-20 05:04:00,20.5,11.3,29.76,WSW,241,8.0,13.0,67,0.00,,OVC003,0.01,VWS V14.01,2013-01-20 10:04:00,
2013-01-20 05:09:00,20.4,11.2,29.76,West,279,5.0,6.0,67,0.00,,OVC003,0.01,VWS V14.01,2013-01-20 10:09:00,
2013-01-20 05:14:00,20.0,11.8,29.76,SSW,212,9.0,9.0,70,0.00,,OVC003,0.01,VWS V14.01,2013-01-20 10:14:00,
2013-01-20 05:19:00,19.7,13.4,29.79,WSW,249,4.0,4.0,76,0.00,,OVC003,0.01,VWS V14.01,2013-01-20 10:19:00,
2013-01-20 05:24:00,19.0,13.6,29.79,ENE,59,4.0,6.0,79,0.00,,OVC003,0.01,VWS V14.01,2013-01-20 10:24:00,
2013-01-20 05:29:00,18.1,13.0,29.79,West,266,4.0,7.0,80,0.00,,OVC003,0.01,VWS V14.01,2013-01-20 10:29:00,
2013-01-20 05:34:00,17.5,12.1,29.81,SW,225,4.0,4.0,79,0.00,,OVC003,0.01,VWS V14.01,2013-01-20 10:34:00,
2013-01-20 05:39:00,17.1,9.9,29.81,West,281,8.0,9.0,73,0.00,,OVC003,0.01,VWS V14.01,2013-01-20 10:39:00,
2013-01-20 05:44:00,17.1,8.7,29.81,WNW,286,7.0,13.0,69,0.00,,OVC003,0.01,VWS V14.01,2013-01-20 10:44:00,
2013-01-20 05:49:00,17.0,7.3,29.83,WNW,301,6.0,6.0,65,0.00,,OVC003,0.01,VWS V14.01,2013-01-20 10:49:00,
2013-01-20 05:54:00,16.9,6.8,29.83,NE,45,5.0,11.0,64,0.00,,OVC003,0.01,VWS V14.01,2013-01-20 10:54:00,
2013-01-20 05:59:00,16.8,6.1,29.83,South,172,5.0,5.0,62,0.00,,OVC003,0.01,VWS V14.01,2013-01-20 10:59:00,
2013-01-20 06:04:00,16.7,6.0,29.85,SW,233,7.0,16.0,62,0.00,,OVC003,0.01,VWS V14.01,2013-01-20 11:04:00,
2013-01-20 06:09:00,16.5,5.8,29.85,SSW,203,12.0,12.0,62,0.00,,OVC003,0.01,VWS V14.01,2013-01-20 11:09:00,
2013-01-20 06:14:00,16.4,5.7,29.85,South,182,5.0,14.0,62,0.00,,OVC003,0.01,VWS V14.01,2013-01-20 11:14:00,
2013-01-20 06:19:00,16.4,6.0,29.86,SSW,210,6.0,6.0,63,0.00,,OVC003,0.01,VWS V14.01,2013-01-20 11:19:00,
2013-01-20 06:24:00,16.3,5.6,29.86,SW,234,4.0,5.0,62,0.00,,OVC003,0.01,VWS V14.01,2013-01-20 11:24:00,
2013-01-20 06:29:00,16.3,5.6,29.86,SW,222,7.0,9.0,62,0.00,,OVC003,0.01,VWS V14.01,2013-01-20 11:29:00,
2013-01-20 06:34:00,16.2,5.5,29.86,WNW,297,4.0,8.0,62,0.00,,OVC003,0.01,VWS V14.01,2013-01-20 11:34:00,
2013-01-20 06:40:00,16.2,5.8,29.86,WSW,247,4.0,10.0,63,0.00,,OVC003,0.01,VWS V14.01,2013-01-20 11:40:00,
2013-01-20 06:45:00,16.2,5.8,29.86,West,279,3.0,9.0,63,0.00,,OVC003,0.01,VWS V14.01,2013-01-20 11:45:00,
2013-01-20 06:50:00,16.2,5.8,29.87,SW,234,5.0,6.0,63,0.00,,OVC003,0.01,VWS V14.01,2013-01-20 11:50:00,
2013-01-20 06:55:00,16.1,6.1,29.87,WSW,237,5.0,7.0,64,0.00,,OVC003,0.01,VWS V14.01,2013-01-20 11:55:00,
2013-01-20 07:00:00,16.1,6.1,29.87,SW,230,6.0,9.0,64,0.00,,OVC003,0.01,VWS V14.01,2013-01-20 12:00:00,
2013-01-20 07:05:00,16.1,6.4,29.89,South,182,4.0,6.0,65,0.00,,OVC003,0.01,VWS V14.01,2013-01-20 12:05:00,
2013-01-20 07:10:00,16.1,6.4,29.89,SW,224,7.0,7.0,65,0.00,,OVC003,0.01,VWS V14.01,2013-01-20 12:10:00,
2013-01-20 07:15:00,16.0,6.3,29.89,West,261,11.0,11.0,65,0.00,,OVC003,0.01,VWS V14.01,2013-01-20 12:15:00,
2013-01-20 07:20:00,16.0,6.3,29.90,SSW,211,4.0,9.0,65,0.00,,OVC003,0.01,VWS V14.01,2013-01-20 12:20:00,
2013-01-20 07:25:00,16.0,6.7,29.90,North,2,6.0,17.0,66,0.00,,OVC003,0.01,VWS V14.01,2013-01-20 12:25:00,
2013-01-20 07:30:00,16.0,6.7,29.90,NW,305,2.0,6.0,66,0.00,,OVC003,0.01,VWS V14.01,2013-01-20 12:30:00,
2013-01-20 07:35:00,15.9,6.9,29.90,NE,41,8.0,10.0,67,0.00,,OVC003,0.01,VWS V14.01,2013-01-20 12:35:00,
2013-01-20 07:40:00,15.9,6.9,29.90,North,5,6.0,6.0,67,0.00,,OVC003,0.01,VWS V14.01,2013-01-20 12:40:00,
2013-01-20 07:46:00,15.9,7.2,29.90,South,188,4.0,5.0,68,0.00,,OVC003,0.01,VWS V14.01,2013-01-20 12:46:00,
2013-01-20 07:51:00,15.9,7.2,29.92,SW,230,4.0,9.0,68,0.00,,OVC003,0.01,VWS V14.01,2013-01-20 12:51:00,
2013-01-20 07:56:00,15.8,7.4,29.92,WNW,287,3.0,6.0,69,0.00,,OVC003,0.01,VWS V14.01,2013-01-20 12:56:00,
2013-01-20 08:01:00,15.8,7.4,29.92,SW,214,3.0,7.0,69,0.00,,OVC003,0.01,VWS V14.01,2013-01-20 13:01:00,
2013-01-20 08:06:00,15.9,7.5,29.93,West,276,5.0,11.0,69,0.00,,OVC003,0.01,VWS V14.01,2013-01-20 13:06:00,
2013-01-20 08:11:00,15.9,7.5,29.93,SW,218,9.0,12.0,69,0.00,,OVC003,0.01,VWS V14.01,2013-01-20 13:11:00,
2013-01-20 08:16:00,15.9,7.5,29.93,West,280,6.0,10.0,69,0.00,,OVC003,0.01,VWS V14.01,2013-01-20 13:16:00,
2013-01-20 08:21:00,15.9,7.9,29.94,WSW,251,6.0,7.0,70,0.00,,OVC003,0.01,VWS V14.01,2013-01-20 13:21:00,
2013-01-20 08:26:00,15.9,7.9,29.94,West,271,8.0,10.0,70,0.00,,OVC003,0.01,VWS V14.01,2013-01-20 13:26:00,
2013-01-20 08:31:00,16.0,8.0,29.94,SW,220,6.0,12.0,70,0.00,,OVC003,0.01,VWS V14.01,2013-01-20 13:31:00,
2013-01-20 08:36:00,16.0,8.0,29.96,SW,236,6.0,13.0,70,0.00,,OVC003,0.01,VWS V14.01,2013-01-20 13:36:00,
2013-01-20 08:41:00,16.1,8.1,29.96,WSW,255,3.0,9.0,70,0.00,,OVC003,0.01,VWS V14.01,2013-01-20 13:41:00,
2013-01-20 08:46:00,16.1,8.4,29.96,West,268,5.0,9.0,71,0.00,,OVC003,0.01,VWS V14.01,2013-01-20 13:46:00,
2013-01-20 08:51:00,16.3,8.6,29.97,WSW,253,6.0,9.0,71,0.00,,OVC003,0.01,VWS V14.01,2013-01-20 13:51:00,
2013-01-20 08:56:00,16.3,8.6,29.97,WSW,251,5.0,12.0,71,0.00,,OVC003,0.01,VWS V14.01,2013-01-20 13:56:00,
2013-01-20 09:01:00,16.4,8.7,29.97,WNW,295,7.0,7.0,71,0.00,,OVC003,0.01,VWS V14.01,2013-01-20 14:01:00,
2013-01-20 09:07:00,16.6,8.9,29.99,West,268,6.0,13.0,71,0.00,,OVC003,0.01,VWS V14.01,2013-01-20 14:07:00,
2013-01-20 09:12:00,16.8,9.0,29.99,SSW,200,6.0,6.0,71,0.00,,OVC003,0.01,VWS V14.01,2013-01-20 14:12:00,
2013-01-20 09:17:00,17.0,8.9,29.99,West,267,6.0,11.0,70,0.00,,OVC003,0.01,VWS V14.01,2013-01-20 14:17:00,
2013-01-20 09:22:00,17.2,9.1,30.00,SW,236,6.0,20.0,70,0.00,,OVC003,0.01,VWS V14.01,2013-01-20 14:22:00,
2013-01-20 09:27:00,17.3,8.9,30.00,West,260,3.0,10.0,69,0.00,,OVC003,0.01,VWS V14.01,2013-01-20 14:27:00,
2013-01-20 09:32:00,17.6,9.2,30.00,WSW,251,9.0,14.0,69,0.00,,OVC003,0.01,VWS V14.01,2013-01-20 14:32:00,
2013-01-20 09:37:00,17.7,9.3,30.01,WSW,240,6.0,10.0,69,0.00,,OVC003,0.01,VWS V14.01,2013-01-20 14:37:00,
2013-01-20 09:42:00,18.0,9.2,30.01,NNW,330,3.0,6.0,68,0.00,,OVC003,0.01,VWS V14.01,2013-01-20 14:42:00,
2013-01-20 09:47:00,18.2,9.4,30.01,SW,220,5.0,13.0,68,0.00,,OVC003,0.01,VWS V14.01,2013-01-20 14:47:00,
2013-01-20 09:52:00,18.3,8.9,30.01,SSW,202,9.0,14.0,66,0.00,,OVC003,0.01,VWS V14.01,2013-01-20 14:52:00,
2013-01-20 09:57:00,18.5,8.7,30.01,WNW,293,4.0,16.0,65,0.00,,OVC003,0.01,VWS V14.01,2013-01-20 14:57:00,
2013-01-20 10:02:00,18.9,8.8,30.01,WNW,291,7.0,11.0,64,0.00,,OVC003,0.01,VWS V14.01,2013-01-20 15:02:00,
2013-01-20 10:07:00,19.2,8.3,30.02,NW,326,4.0,10.0,62,0.00,,OVC003,0.01,VWS V14.01,2013-01-20 15:07:00,
2013-01-20 10:12:00,19.6,8.4,30.02,North,359,7.0,7.0,61,0.00,,OVC003,0.01,VWS V14.01,2013-01-20 15:12:00,
2013-01-20 10:17:00,19.7,8.1,30.02,North,354,8.0,14.0,60,0.00,,OVC003,0.01,VWS V14.01,2013-01-20 15:17:00,
2013-01-20 10:22:00,19.7,8.4,30.02,SSW,213,5.0,10.0,61,0.00,,OVC003,0.01,VWS V14.01,2013-01-20 15:22:00,
2013-01-20 10:27:00,19.6,9.1,30.02,SE,143,3.0,13.0,63,0.00,,OVC003,0.01,VWS V14.01,2013-01-20 15:27:00,
2013-01-20 10:32:00,19.5,9.7,30.02,WSW,246,3.0,14.0,65,0.00,,OVC003,0.01,VWS V14.01,2013-01-20 15:32:00,
2013-01-20 10:37:00,19.5,10.0,30.03,SSW,195,8.0,13.0,66,0.00,,OVC003,0.01,VWS V14.01,2013-01-20 15:37:00,
2013-01-20 10:42:00,19.3,10.1,30.03,WSW,258,2.0,10.0,67,0.00,,OVC003,0.01,VWS V14.01,2013-01-20 15:42:00,
2013-01-20 10:47:00,19.2,10.7,30.03,WNW,294,4.0,9.0,69,0.00,,OVC003,0.01,VWS V14.01,2013-01-20 15:47:00,
2013-01-20 10:52:00,18.7,9.9,30.04,SW,218,6.0,11.0,68,0.00,,OVC003,0.01,VWS V14.01,2013-01-20 15:52:00,
2013-01-20 10:57:00,18.3,9.5,30.04,NNW,343,4.0,10.0,68,0.00,,OVC003,0.01,VWS V14.01,2013-01-20 15:57:00,
2013-01-20 11:02:00,18.5,9.4,30.04,SSW,202,9.0,12.0,67,0.00,,OVC003,0.01,VWS V14.01,2013-01-20 16:02:00,
2013-01-20 11:07:00,18.9,9.4,30.04,NW,326,4.0,7.0,66,0.00,,OVC003,0.01,VWS V14.01,2013-01-20 16:07:00,
2013-01-20 11:12:00,19.1,8.9,30.04,NW,312,5.0,12.0,64,0.00,,OVC003,0.01,VWS V14.01,2013-01-20 16:12:00,
2013-01-20 11:17:00,18.9,8.1,30.04,SW,216,6.0,7.0,62,0.00,,OVC003,0.01,VWS V14.01,2013-01-20 16:17:00,
2013-01-20 11:22:00,19.0,8.5,30.06,SSW,195,7.0,15.0,63,0.00,,OVC003,0.01,VWS V14.01,2013-01-20 16:22:00,
2013-01-20 11:27:00,19.1,8.9,30.06,WSW,248,2.0,7.0,64,0.00,,OVC003,0.01,VWS V14.01,2013-01-20 16:27:00,
2013-01-20 11:32:00,19.7,9.5,30.06,SW,226,6.0,7.0,64,0.00,,OVC003,0.01,VWS V14.01,2013-01-20 16:32:00,
2013-01-20 11:37:00,19.7,8.4,30.06,NW,307,7.0,10.0,61,0.00,,OVC003,0.01,VWS V14.01,2013-01-20 16:37:00,
2013-01-20 11:42:00,19.5,6.8,30.06,WSW,239,6.0,10.0,57,0.00,,OVC003,0.01,VWS V14.01,2013-01-20 16:42:00,
2013-01-20 11:47:00,19.1,7.1,30.06,ENE,63,5.0,6.0,59,0.00,,OVC003,0.01,VWS V14.01,2013-01-20 16:47:00,
2013-01-20 11:52:00,19.2,7.2,30.06,WNW,284,6.0,12.0,59,0.00,,OVC003,0.01,VWS V14.01,2013-01-20 16:52:00,
2013-01-20 11:58:00,19.4,8.2,30.06,NW,305,2.0,14.0,61,0.00,,OVC003,0.01,VWS V14.01,2013-01-20 16:58:00,
2013-01-20 12:03:00,19.8,8.9,30.06,WSW,243,11.0,11.0,62,0.00,,OVC003,0.01,VWS V14.01,2013-01-20 17:03:00,
2013-01-20 12:08:00,19.7,8.4,30.06,WSW,248,4.0,9.0,61,0.00,,OVC003,0.01,VWS V14.01,2013-01-20 17:08:00,
2013-01-20 12:13:00,19.3,8.1,30.06,WSW,241,3.0,16.0,61,0.00,,OVC003,0.01,VWS V14.01,2013-01-20 17:13:00,
2013-01-20 12:18:00,19.1,7.9,30.06,NW,326,2.0,13.0,61,0.00,,OVC003,0.01,VWS V14.01,2013-01-20 17:18:00,
2013-01-20 12:23:00,19.0,7.8,30.06,NW,312,6.0,18.0,61,0.00,,OVC003,0.01,VWS V14.01,2013-01-20 17:23:00,
2013-01-20 12:28:00,18.9,8.4,30.06,WSW,244,6.0,16.0,63,0.00,,OVC003,0.01,VWS V14.01,2013-01-20 17:28:00,
2013-01-20 12:33:00,19.0,8.1,30.06,SW,230,7.0,9.0,62,0.00,,OVC003,0.01,VWS V14.01,2013-01-20 17:33:00,
2013-01-20 12:38:00,18.9,9.1,30.06,NW,317,3.0,5.0,65,0.00,,OVC003,0.01,VWS V14.01,2013-01-20 17:38:00,
2013-01-20 12:43:00,18.6,8.8,30.06,WNW,297,6.0,10.0,65,0.00,,OVC003,0.01,VWS V14.01,2013-01-20 17:43:00,
2013-01-20 12:48:00,18.5,9.1,30.06,WSW,245,6.0,6.0,66,0.00,,OVC003,0.01,VWS V14.01,2013-01-20 17:48:00,
2013-01-20 12:53:00,18.7,8.9,30.06,NNE,32,3.0,3.0,65,0.00,,OVC003,0.01,VWS V14.01,2013-01-20 17:53:00,
2013-01-20 12:58:00,18.9,8.4,30.06,WNW,299,6.0,6.0,63,0.00,,OVC003,0.01,VWS V14.01,2013-01-20 17:58:00,
2013-01-20 13:03:00,18.9,8.1,30.06,West,271,5.0,9.0,62,0.00,,OVC003,0.01,VWS V14.01,2013-01-20 18:03:00,
2013-01-20 13:08:00,18.8,8.3,30.06,WNW,286,3.0,9.0,63,0.00,,OVC003,0.01,VWS V14.01,2013-01-20 18:08:00,
2013-01-20 13:13:00,18.8,7.9,30.06,North,355,3.0,7.0,62,0.00,,OVC003,0.01,VWS V14.01,2013-01-20 18:13:00,
2013-01-20 13:18:00,18.6,7.8,30.07,North,3,6.0,11.0,62,0.00,,OVC003,0.01,VWS V14.01,2013-01-20 18:18:00,
2013-01-20 13:23:00,18.6,8.1,30.07,SW,216,4.0,4.0,63,0.00,,OVC003,0.01,VWS V14.01,2013-01-20 18:23:00,
2013-01-20 13:28:00,18.5,8.0,30.07,SSW,203,8.0,9.0,63,0.00,,OVC003,0.01,VWS V14.01,2013-01-20 18:28:00,
2013-01-20 13:33:00,18.5,8.4,30.07,SW,214,3.0,5.0,64,0.00,,OVC003,0.01,VWS V14.01,2013-01-20 18:33:00,
2013-01-20 13:38:00,18.5,8.0,30.07,SW,232,2.0,12.0,63,0.00,,OVC003,0.01,VWS V14.01,2013-01-20 18:38:00,
2013-01-20 13:43:00,18.6,7.4,30.07,SW,234,6.0,13.0,61,0.00,,OVC003,0.01,VWS V14.01,2013-01-20 18:43:00,
2013-01-20 13:48:00,18.6,7.0,30.07,West,260,2.0,7.0,60,0.00,,OVC003,0.01,VWS V14.01,2013-01-20 18:48:00,
2013-01-20 13:53:00,18.6,7.0,30.07,SSW,195,3.0,13.0,60,0.00,,OVC003,0.01,VWS V14.01,2013-01-20 18:53:00,
2013-01-20 13:58:00,18.7,7.1,30.07,WSW,254,5.0,13.0,60,0.00,,OVC003,0.01,VWS V14.01,2013-01-20 18:58:00,
2013-01-20 14:03:00,18.8,7.6,30.07,West,263,8.0,8.0,61,0.00,,OVC003,0.01,VWS V14.01,2013-01-20 19:03:00,
2013-01-20 14:08:00,18.6,7.4,30.07,West,266,4.0,7.0,61,0.00,,OVC003,0.01,VWS V14.01,2013-01-20 19:08:00,
2013-01-20 14:13:00,18.7,7.9,30.07,ESE,105,2.0,4.0,62,0.00,,OVC003,0.01,VWS V14.01,2013-01-20 19:13:00,
2013-01-20 14:18:00,18.7,7.9,30.07,WSW,247,3.0,6.0,62,0.00,,OVC003,0.01,VWS V14.01,2013-01-20 19:18:00,
2013-01-20 14:23:00,18.7,8.2,30.07,SSW,213,5.0,6.0,63,0.00,,OVC003,0.01,VWS V14.01,2013-01-20 19:23:00,
2013-01-20 14:28:00,18.6,8.1,30.07,NNW,344,3.0,11.0,63,0.00,,OVC003,0.01,VWS V14.01,2013-01-20 19:28:00,
2013-01-20 14:33:00,18.5,8.0,30.08,West,265,3.0,6.0,63,0.00,,OVC003,0.01,VWS V14.01,2013-01-20 19:33:00,
2013-01-20 14:38:00,18.4,7.9,30.08,WNW,290,4.0,12.0,63,0.00,,OVC003,0.01,VWS V14.01,2013-01-20 19:38:00,
2013-01-20 14:43:00,18.4,8.3,30.08,NNW,347,5.0,6.0,64,0.00,,OVC003,0.01,VWS V14.01,2013-01-20 19:43:00,
2013-01-20 14:48:00,18.4,8.3,30.09,North,4,3.0,6.0,64,0.00,,OVC003,0.01,VWS V14.01,2013-01-20 19:48:00,
2013-01-20 14:53:00,18.4,9.0,30.09,WSW,241,6.0,6.0,66,0.00,,OVC003,0.01,VWS V14.01,2013-01-20 19:53:00,
2013-01-20 14:58:00,18.4,9.0,30.09,NW,317,4.0,7.0,66,0.00,,OVC003,0.01,VWS V14.01,2013-01-20 19:58:00,
2013-01-20 15:03:00,18.4,9.3,30.09,WNW,297,3.0,8.0,67,0.00,,OVC003,0.01,VWS V14.01,2013-01-20 20:03:00,
2013-01-20 15:08:00,18.3,8.9,30.09,WSW,246,4.0,4.0,66,0.00,,OVC003,0.01,VWS V14.01,2013-01-20 20:08:00,
2013-01-20 15:13:00,18.3,8.9,30.09,NW,305,4.0,4.0,66,0.00,,OVC003,0.01,VWS V14.01,2013-01-20 20:13:00,
2013-01-20 15:18:00,18.2,8.4,30.09,NNW,336,5.0,5.0,65,0.00,,OVC003,0.01,VWS V14.01,2013-01-20 20:18:00,
2013-01-20 15:23:00,18.1,8.0,30.09,West,263,5.0,5.0,64,0.00,,OVC003,0.01,VWS V14.01,2013-01-20 20:23:00,
2013-01-20 15:29:00,18.1,8.0,30.09,West,270,3.0,3.0,64,0.00,,OVC003,0.01,VWS V14.01,2013-01-20 20:29:00,
2013-01-20 15:34:00,18.1,8.3,30.10,WSW,240,5.0,5.0,65,0.00,,OVC003,0.01,VWS V14.01,2013-01-20 20:34:00,
2013-01-20 15:39:00,18.2,8.1,30.10,West,259,2.0,3.0,64,0.00,,OVC003,0.01,VWS V14.01,2013-01-20 20:39:00,
2013-01-20 15:44:00,18.3,8.5,30.10,West,262,5.0,5.0,65,0.00,,OVC003,0.01,VWS V14.01,2013-01-20 20:44:00,
2013-01-20 15:49:00,18.3,7.8,30.10,SSW,209,5.0,5.0,63,0.00,,OVC003,0.01,VWS V14.01,2013-01-20 20:49:00,
2013-01-20 15:54:00,18.4,8.3,30.10,NNW,337,3.0,4.0,64,0.00,,OVC003,0.01,VWS V14.01,2013-01-20 20:54:00,
2013-01-20 15:59:00,18.4,7.2,30.10,WNW,295,5.0,5.0,61,0.00,,OVC003,0.01,VWS V14.01,2013-01-20 20:59:00,
2013-01-20 16:04:00,18.4,7.2,30.10,WSW,248,3.0,5.0,61,0.00,,OVC003,0.01,VWS V14.01,2013-01-20 21:04:00,
2013-01-20 16:09:00,18.3,6.4,30.10,WSW,249,7.0,7.0,59,0.00,,OVC003,0.01,VWS V14.01,2013-01-20 21:09:00,
2013-01-20 16:14:00,18.2,6.7,30.10,SW,216,4.0,4.0,60,0.00,,OVC003,0.01,VWS V14.01,2013-01-20 21:14:00,
2013-01-20 16:19:00,18.2,6.3,30.10,WNW,296,9.0,11.0,59,0.00,,OVC003,0.01,VWS V14.01,2013-01-20 21:19:00,
2013-01-20 16:24:00,18.1,6.2,30.10,West,261,5.0,5.0,59,0.00,,OVC003,0.01,VWS V14.01,2013-01-20 21:24:00,
2013-01-20 16:30:00,17.9,6.0,30.10,SW,223,3.0,5.0,59,0.00,,OVC003,0.01,VWS V14.01,2013-01-20 21:30:00,
2013-01-20 16:35:00,17.8,5.9,30.10,West,275,4.0,5.0,59,0.00,,OVC003,0.01,VWS V14.01,2013-01-20 21:35:00,
2013-01-20 16:40:00,17.8,5.9,30.10,NNW,347,5.0,5.0,59,0.00,,OVC003,0.01,VWS V14.01,2013-01-20 21:40:00,
2013-01-20 16:45:00,17.6,5.3,30.10,WNW,288,5.0,7.0,58,0.00,,OVC003,0.01,VWS V14.01,2013-01-20 21:45:00,
2013-01-20 16:50:00,17.5,5.6,30.11,SW,228,4.0,4.0,59,0.00,,OVC003,0.01,VWS V14.01,2013-01-20 21:50:00,
2013-01-20 16:55:00,17.5,5.3,30.11,WSW,245,4.0,5.0,58,0.00,,OVC003,0.01,VWS V14.01,2013-01-20 21:55:00,
2013-01-20 17:00:00,17.4,5.2,30.11,WSW,253,6.0,6.0,58,0.00,,OVC003,0.01,VWS V14.01,2013-01-20 22:00:00,
2013-01-20 17:05:00,17.3,5.1,30.11,WSW,243,5.0,6.0,58,0.00,,OVC003,0.01,VWS V14.01,2013-01-20 22:05:00,
2013-01-20 17:10:00,17.1,5.2,30.11,NE,49,3.0,6.0,59,0.00,,OVC003,0.01,VWS V14.01,2013-01-20 22:10:00,
2013-01-20 17:15:00,17.0,4.8,30.11,West,278,6.0,6.0,58,0.00,,OVC003,0.01,VWS V14.01,2013-01-20 22:15:00,
2013-01-20 17:20:00,16.8,5.0,30.11,SSW,195,10.0,10.0,59,0.00,,OVC003,0.01,VWS V14.01,2013-01-20 22:20:00,
2013-01-20 17:26:00,16.7,4.9,30.11,WSW,252,5.0,6.0,59,0.00,,OVC003,0.01,VWS V14.01,2013-01-20 22:26:00,
2013-01-20 17:31:00,16.6,4.8,30.11,North,10,4.0,6.0,59,0.00,,OVC003,0.01,VWS V14.01,2013-01-20 22:31:00,
2013-01-20 17:36:00,16.5,5.1,30.12,WSW,254,5.0,5.0,60,0.00,,OVC003,0.01,VWS V14.01,2013-01-20 22:36:00,
2013-01-20 17:41:00,16.5,5.1,30.12,West,274,4.0,4.0,60,0.00,,OVC003,0.01,VWS V14.01,2013-01-20 22:41:00,
2013-01-20 17:46:00,16.4,5.0,30.12,WSW,247,4.0,4.0,60,0.00,,OVC003,0.01,VWS V14.01,2013-01-20 22:46:00,
2013-01-20 17:52:00,16.4,5.0,30.13,SSW,211,5.0,7.0,60,0.00,,OVC003,0.01,VWS V14.01,2013-01-20 22:52:00,
2013-01-20 17:57:00,16.4,5.0,30.13,West,271,3.0,6.0,60,0.00,,OVC003,0.01,VWS V14.01,2013-01-20 22:57:00,
2013-01-20 18:02:00,16.4,5.0,30.13,West,266,4.0,7.0,60,0.00,,OVC003,0.01,VWS V14.01,2013-01-20 23:02:00,
2013-01-20 18:08:00,16.4,5.0,30.13,SW,236,3.0,5.0,60,0.00,,OVC003,0.01,VWS V14.01,2013-01-20 23:08:00,
2013-01-20 18:13:00,16.3,5.2,30.13,WSW,248,5.0,7.0,61,0.00,,OVC003,0.01,VWS V14.01,2013-01-20 23:13:00,
2013-01-20 18:18:00,16.3,5.2,30.13,SW,233,2.0,0.0,61,0.00,,OVC003,0.01,VWS V14.01,2013-01-20 23:18:00,
2013-01-20 18:24:00,16.3,5.6,30.13,WSW,246,5.0,5.0,62,0.00,,OVC003,0.01,VWS V14.01,2013-01-20 23:24:00,
2013-01-20 18:29:00,16.2,5.1,30.13,NW,304,2.0,0.0,61,0.00,,OVC003,0.01,VWS V14.01,2013-01-20 23:29:00,
2013-01-20 18:34:00,16.2,5.5,30.14,SW,222,5.0,5.0,62,0.00,,OVC003,0.01,VWS V14.01,2013-01-20 23:34:00,
2013-01-20 18:39:00,16.2,5.8,30.14,SW,222,3.0,3.0,63,0.00,,OVC003,0.01,VWS V14.01,2013-01-20 23:39:00,
2013-01-20 18:44:00,16.2,5.5,30.14,NW,308,2.0,0.0,62,0.00,,OVC003,0.01,VWS V14.01,2013-01-20 23:44:00,
2013-01-20 18:49:00,16.2,5.5,30.14,WSW,252,3.0,3.0,62,0.00,,OVC003,0.01,VWS V14.01,2013-01-20 23:49:00,
2013-01-20 18:54:00,16.1,5.7,30.14,West,274,4.0,4.0,63,0.00,,OVC003,0.01,VWS V14.01,2013-01-20 23:54:00,
2013-01-20 18:59:00,16.0,5.6,30.14,WNW,294,3.0,3.0,63,0.00,,OVC003,0.01,VWS V14.01,2013-01-20 23:59:00,
2013-01-20 19:04:00,16.0,5.6,30.13,WNW,301,5.0,5.0,63,0.00,,OVC003,0.01,VWS V14.01,2013-01-21 00:04:00,
2013-01-20 19:09:00,15.9,5.9,30.13,WNW,283,4.0,5.0,64,0.00,,OVC003,0.01,VWS V14.01,2013-01-21 00:09:00,
2013-01-20 19:14:00,15.9,5.9,30.13,WSW,242,2.0,2.0,64,0.00,,OVC003,0.01,VWS V14.01,2013-01-21 00:14:00,
2013-01-20 19:20:00,15.9,5.6,30.14,West,266,5.0,5.0,63,0.00,,OVC003,0.01,VWS V14.01,2013-01-21 00:20:00,
2013-01-20 19:25:00,15.8,5.4,30.14,ESE,114,2.0,2.0,63,0.00,,OVC003,0.01,VWS V14.01,2013-01-21 00:25:00,
2013-01-20 19:30:00,15.8,5.1,30.14,NW,312,2.0,4.0,62,0.00,,OVC003,0.01,VWS V14.01,2013-01-21 00:30:00,
2013-01-20 19:35:00,15.8,5.1,30.14,West,267,2.0,2.0,62,0.00,,OVC003,0.01,VWS V14.01,2013-01-21 00:35:00,
2013-01-20 19:40:00,15.8,5.1,30.14,West,261,4.0,7.0,62,0.00,,OVC003,0.01,VWS V14.01,2013-01-21 00:40:00,
2013-01-20 19:45:00,15.7,5.0,30.14,SW,220,7.0,7.0,62,0.00,,OVC003,0.01,VWS V14.01,2013-01-21 00:45:00,
2013-01-20 19:50:00,15.6,4.9,30.14,West,270,3.0,4.0,62,0.00,,OVC003,0.01,VWS V14.01,2013-01-21 00:50:00,
2013-01-20 19:55:00,15.5,4.8,30.14,NW,317,4.0,4.0,62,0.00,,OVC003,0.01,VWS V14.01,2013-01-21 00:55:00,
2013-01-20 20:00:00,15.4,4.7,30.14,WSW,255,4.0,4.0,62,0.00,,OVC003,0.01,VWS V14.01,2013-01-21 01:00:00,
2013-01-20 20:05:00,15.4,4.7,30.14,WSW,253,2.0,3.0,62,0.00,,OVC003,0.01,VWS V14.01,2013-01-21 01:05:00,
2013-01-20 20:10:00,15.3,5.0,30.14,NNW,327,2.0,6.0,63,0.00,,OVC003,0.01,VWS V14.01,2013-01-21 01:10:00,
2013-01-20 20:15:00,15.3,4.6,30.14,SSE,168,2.0,2.0,62,0.00,,OVC003,0.01,VWS V14.01,2013-01-21 01:15:00,
2013-01-20 20:20:00,15.3,4.6,30.14,West,261,4.0,4.0,62,0.00,,OVC003,0.01,VWS V14.01,2013-01-21 01:20:00,
2013-01-20 20:25:00,15.2,4.5,30.14,West,281,4.0,7.0,62,0.00,,OVC003,0.01,VWS V14.01,2013-01-21 01:25:00,
2013-01-20 20:31:00,15.2,4.2,30.14,West,266,2.0,4.0,61,0.00,,OVC003,0.01,VWS V14.01,2013-01-21 01:31:00,
2013-01-20 20:36:00,15.1,4.4,30.14,WSW,256,2.0,3.0,62,0.00,,OVC003,0.01,VWS V14.01,2013-01-21 01:36:00,
2013-01-20 20:41:00,15.1,4.4,30.14,WSW,240,3.0,6.0,62,0.00,,OVC003,0.01,VWS V14.01,2013-01-21 01:41:00,
2013-01-20 20:46:00,15.1,4.8,30.14,WSW,255,2.0,2.0,63,0.00,,OVC003,0.01,VWS V14.01,2013-01-21 01:46:00,
2013-01-20 20:51:00,15.0,4.7,30.14,WSW,255,4.0,4.0,63,0.00,,OVC003,0.01,VWS V14.01,2013-01-21 01:51:00,
2013-01-20 20:57:00,15.0,4.7,30.14,West,279,2.0,5.0,63,0.00,,OVC003,0.01,VWS V14.01,2013-01-21 01:57:00,
2013-01-20 21:02:00,14.9,4.9,30.14,West,276,2.0,3.0,64,0.00,,OVC003,0.01,VWS V14.01,2013-01-21 02:02:00,
2013-01-20 21:07:00,14.7,4.8,30.14,West,276,2.0,2.0,64,0.00,,OVC003,0.01,VWS V14.01,2013-01-21 02:07:00,
2013-01-20 21:12:00,14.4,4.8,30.14,West,263,2.0,4.0,65,0.00,,OVC003,0.01,VWS V14.01,2013-01-21 02:12:00,
2013-01-20 21:18:00,14.3,4.7,30.14,WSW,255,5.0,5.0,65,0.00,,OVC003,0.01,VWS V14.01,2013-01-21 02:18:00,
2013-01-20 21:23:00,14.1,4.8,30.14,West,280,2.0,3.0,66,0.00,,OVC003,0.01,VWS V14.01,2013-01-21 02:23:00,
2013-01-20 21:28:00,13.9,4.7,30.14,West,280,3.0,3.0,66,0.00,,OVC003,0.01,VWS V14.01,2013-01-21 02:28:00,
2013-01-20 21:33:00,13.7,4.5,30.14,WSW,249,2.0,2.0,66,0.00,,OVC003,0.01,VWS V14.01,2013-01-21 02:33:00,
2013-01-20 21:38:00,13.6,4.4,30.14,SSW,197,4.0,4.0,66,0.00,,OVC003,0.01,VWS V14.01,2013-01-21 02:38:00,
2013-01-20 21:43:00,13.6,4.7,30.14,South,186,2.0,3.0,67,0.00,,OVC003,0.01,VWS V14.01,2013-01-21 02:43:00,
2013-01-20 21:48:00,13.6,4.7,30.14,South,186,2.0,2.0,67,0.00,,OVC003,0.01,VWS V14.01,2013-01-21 02:48:00,
2013-01-20 21:53:00,13.5,4.6,30.14,WSW,254,2.0,2.0,67,0.00,,OVC003,0.01,VWS V14.01,2013-01-21 02:53:00,
2013-01-20 21:58:00,13.5,4.9,30.14,WSW,253,2.0,3.0,68,0.00,,OVC003,0.01,VWS V14.01,2013-01-21 02:58:00,
2013-01-20 22:04:00,13.4,4.8,30.14,West,259,2.0,2.0,68,0.00,,OVC003,0.01,VWS V14.01,2013-01-21 03:04:00,
2013-01-20 22:09:00,13.4,4.8,30.14,WSW,256,2.0,0.0,68,0.00,,OVC003,0.01,VWS V14.01,2013-01-21 03:09:00,
2013-01-20 22:14:00,13.4,4.8,30.14,WSW,256,3.0,3.0,68,0.00,,OVC003,0.01,VWS V14.01,2013-01-21 03:14:00,
2013-01-20 22:19:00,13.4,4.8,30.13,SW,228,5.0,5.0,68,0.00,,OVC003,0.01,VWS V14.01,2013-01-21 03:19:00,
2013-01-20 22:24:00,13.4,4.8,30.13,WSW,238,2.0,0.0,68,0.00,,OVC003,0.01,VWS V14.01,2013-01-21 03:24:00,
2013-01-20 22:29:00,13.4,4.8,30.13,WSW,242,2.0,2.0,68,0.00,,OVC003,0.01,VWS V14.01,2013-01-21 03:29:00,
2013-01-20 22:34:00,13.3,4.7,30.13,SW,230,2.0,3.0,68,0.00,,OVC003,0.01,VWS V14.01,2013-01-21 03:34:00,
2013-01-20 22:39:00,13.3,5.1,30.13,WNW,291,2.0,2.0,69,0.00,,OVC003,0.01,VWS V14.01,2013-01-21 03:39:00,
2013-01-20 22:45:00,13.2,4.9,30.13,WNW,292,2.0,2.0,69,0.00,,OVC003,0.01,VWS V14.01,2013-01-21 03:45:00,
2013-01-20 22:50:00,13.1,4.8,30.12,WNW,292,2.0,0.0,69,0.00,,OVC003,0.01,VWS V14.01,2013-01-21 03:50:00,
2013-01-20 22:55:00,13.1,4.8,30.12,WNW,292,2.0,2.0,69,0.00,,OVC003,0.01,VWS V14.01,2013-01-21 03:55:00,
2013-01-20 23:00:00,13.0,4.8,30.12,WNW,291,2.0,2.0,69,0.00,,OVC003,0.01,VWS V14.01,2013-01-21 04:00:00,
2013-01-20 23:06:00,12.8,4.6,30.12,WNW,292,2.0,0.0,69,0.00,,OVC003,0.01,VWS V14.01,2013-01-21 04:06:00,
2013-01-20 23:11:00,12.7,4.8,30.12,WNW,291,2.0,0.0,70,0.00,,OVC003,0.01,VWS V14.01,2013-01-21 04:11:00,
2013-01-20 23:16:00,12.6,4.7,30.12,WNW,292,2.0,0.0,70,0.00,,OVC003,0.01,VWS V14.01,2013-01-21 04:16:00,
2013-01-20 23:21:00,12.5,4.6,30.11,WNW,291,2.0,0.0,70,0.00,,OVC003,0.01,VWS V14.01,2013-01-21 04:21:00,
2013-01-20 23:26:00,12.5,4.9,30.11,WNW,292,2.0,0.0,71,0.00,,OVC003,0.01,VWS V14.01,2013-01-21 04:26:00,
2013-01-20 23:31:00,12.6,5.3,30.11,WNW,292,2.0,0.0,72,0.00,,OVC003,0.01,VWS V14.01,2013-01-21 04:31:00,
2013-01-20 23:36:00,12.6,5.3,30.11,WSW,252,3.0,3.0,72,0.00,,OVC003,0.01,VWS V14.01,2013-01-21 04:36:00,
2013-01-20 23:41:00,12.8,5.2,30.11,WSW,252,3.0,3.0,71,0.00,,OVC003,0.01,VWS V14.01,2013-01-21 04:41:00,
2013-01-20 23:46:00,12.9,5.6,30.11,WSW,252,2.0,2.0,72,0.00,,OVC003,0.01,VWS V14.01,2013-01-21 04:46:00,
2013-01-20 23:51:00,13.0,5.7,30.11,WSW,252,3.0,3.0,72,0.00,,OVC003,0.01,VWS V14.01,2013-01-21 04:51:00,
2013-01-20 23:56:00,13.1,5.8,30.11,WSW,256,2.0,3.0,72,0.00,,OVC003,0.01,VWS V14.01,2013-01-21 04:56:00,